BAW491 LXGB-EGLL

Flight info

Callsign BAW491
Flight time 2h 25m
Altitude 36000
Route PIMOS N869 BLN N865 VTB N867 NENEM DCT PEXOD DCT YURZI UL14 TEPRA UN867 MOKOR/N0440F340 UP87 ROXOG
Aircraft A320/M-SDE3FGIJ1KRWXY/SB1

Departure

Time 2026-04-30 15:14
Airport Gibraltar Airport (LXGB)

Arrival

Time 2026-04-30 17:39
Airport London Heathrow Airport (EGLL)
Time Latitude Longitude Altitude Speed Heading
2026-04-30 14:32 36.15302 -5.34629 19 ft 0 kts 357°
2026-04-30 15:06 36.15285 -5.34627 18 ft 4 kts 354°
2026-04-30 15:06 36.15237 -5.34625 18 ft 3 kts 11°
2026-04-30 15:07 36.15222 -5.34666 19 ft 4 kts 102°
2026-04-30 15:07 36.15224 -5.34690 20 ft 0 kts 87°
2026-04-30 15:10 36.15224 -5.34687 18 ft 1 kts 87°
2026-04-30 15:11 36.15232 -5.34472 18 ft 11 kts 87°
2026-04-30 15:11 36.15239 -5.34271 18 ft 10 kts 89°
2026-04-30 15:12 36.15163 -5.34093 17 ft 12 kts 60°
2026-04-30 15:13 36.15148 -5.34048 16 ft 6 kts 266°
2026-04-30 15:14 36.15050 -5.36989 726 ft 159 kts 263°
2026-04-30 15:14 36.14222 -5.41147 2734 ft 190 kts 227°
2026-04-30 15:16 36.06846 -5.38559 5768 ft 268 kts 150°
2026-04-30 15:17 36.04891 -5.30265 9604 ft 299 kts 58°
2026-04-30 15:18 36.13169 -5.20084 11879 ft 363 kts 45°
2026-04-30 15:19 36.18670 -5.13487 13723 ft 374 kts 45°
2026-04-30 17:39 51.47581 -0.47774 87 ft 14 kts 270°
2026-04-30 17:41 51.47318 -0.48474 86 ft 9 kts 179°
2026-04-30 17:42 51.47271 -0.48515 87 ft 3 kts 274°
2026-04-30 17:42 51.47271 -0.48585 89 ft 0 kts 269°